User: anonymous
Location: Caltech
(34.1382°N, 118.1253°W)
Time: 02:35:11
(UTC-07:00)
Language:

UOSAT-12 - Orbit

View from above orbital plane
View from above orbital plane
View from above satellite
View from above satellite

Ground track
Ground track

The orbit data is extracted from the following two-line orbital elements,

1 25693U 99021A   14106.47325160  .00000571  00000-0  93407-4 0  4508
2 25693 064.5565 092.2166 0044537 296.7016 203.0310 14.79897753808788
Epoch (UTC): 16 April 2014 11:21:28
Eccentricity: 0.0044537
inclination: 64.5565°
perigee height: 598 km
apogee height: 661 km
right ascension of ascending node: 92.2166°
argument of perigee: 296.7016°
revolutions per day: 14.79897753
mean anomaly at epoch: 203.0310°
orbit number at epoch: 80878

The dashed part of the orbit path shows where the satellite is in the earth's shadow,  

DLR